Vorticity
6 7 5 7 11 12 3 6 4 6 15 1 9 5 2 3 3 4 1 4 5 6 3 3 4 4 3 2 3 3 3 3 2 3 3 3 3 3 3 3 4 3 3 3 4
6 7 5 6 7 11 12 6 4 4 8 7 9 10 1 2 3 4 1 3 4 5 6 3 5 4 5 4 3 3 2 5 2 3 2 3 3 4 4 3 4 2 3 2 3
7 6 5 8 5 6 11 16 3 5 7 7 2 7 4 0 3 2 3 1 4 4 5 4 4 5 5 3 3 4 3 5 3 4 4 4 3 3 3 5 0 5 4 5 4
7 6 7 7 7 4 5 11 12 3 7 17 4 8 9 1 -0 -1 4 2 3 4 4 4 3 5 4 6 5 7 5 5 6 4 8 6 8 7 6 4 3 3 4 4 3
7 6 6 5 6 8 6 5 8 10 8 7 14 2 11 7 4 1 3 4 3 2 4 5 4 7 4 5 6 9 8 6 6 8 5 5 8 9 10 10 9 9 7 5 5
4 7 8 10 7 6 5 6 6 10 9 10 10 14 14 11 3 5 3 1 4 6 2 2 8 3 5 4 6 6 5 6 5 5 5 5 6 7 7 6 10 11 11 9 6
7 6 8 7 7 7 7 7 6 7 9 2 5 9 10 16 10 5 5 -3 2 4 4 6 -0 3 7 5 4 4 5 5 4 3 3 4 7 7 4 5 7 15 14 11 9
9 5 5 6 7 9 9 8 7 5 12 3 8 10 3 19 16 9 11 19 -4 6 4 3 6 7 5 5 3 4 3 5 4 4 4 5 2 3 5 -1 11 7 8 11 10
8 8 7 6 5 8 6 7 6 5 7 11 6 13 6 10 14 10 12 15 -4 5 1 6 6 4 9 5 5 4 3 5 8 5 4 4 3 7 4 2 15 11 10 12 12
7 5 7 6 6 4 3 8 6 6 6 7 17 6 11 4 11 14 9 17 -4 0 7 0 7 8 8 6 4 4 7 7 5 4 0 1 5 7 5 5 17 14 10 10 11
7 7 9 6 7 7 7 10 12 8 7 4 10 10 12 6 1 15 17 21 11 11 10 5 4 3 2 -6 3 9 8 6 7 4 3 11 5 4 5 1 16 11 9 11 12
13 12 9 9 7 7 6 9 11 12 15 -1 9 10 12 6 6 7 9 12 6 8 15 4 3 4 8 21 12 8 3 9 4 1 14 6 4 3 2 14 13 17 12 11 9
12 9 13 10 7 8 6 6 6 11 9 21 5 8 13 9 6 0 8 7 14 12 8 4 7 10 8 3 -2 7 8 1 3 10 6 7 6 6 9 18 12 11 9 8 8
-5 13 13 9 5 6 8 14 1 1 11 17 14 18 19 10 7 1 -0 10 7 10 7 -2 7 9 5 4 4 2 9 12 6 6 8 7 5 4 12 12 8 10 9 10 8
15 7 18 13 8 5 10 9 6 12 5 13 11 11 26 21 16 13 9 9 8 24 3 10 13 7 11 23 14 1 7 4 9 8 8 7 4 7 15 11 8 9 9 9 9
12 5 17 13 6 2 5 4 -3 21 12 10 -1 4 15 30 16 19 7 4 8 13 11 17 7 16 11 9 9 9 9 11 11 5 2 2 5 16 13 6 8 13 11 9 8
4 6 18 11 14 5 8 2 -5 20 8 3 13 9 9 28 22 22 18 19 16 15 30 24 24 11 13 7 8 9 9 4 8 7 5 8 14 19 10 7 9 8 9 8 7
28 1 10 7 5 3 3 2 1 1 11 5 15 9 7 9 24 21 19 9 15 23 11 4 7 6 11 3 7 4 5 6 8 6 10 15 15 6 8 8 9 9 8 8 8
30 -0 10 9 1 3 10 6 7 -15 20 -5 9 7 5 -1 19 29 14 21 4 4 3 2 5 7 16 9 6 9 4 9 10 8 9 9 7 6 7 6 5 6 8 7 5
-9 4 14 8 5 4 3 3 8 4 16 12 1 1 5 11 3 18 21 16 5 25 7 8 7 4 3 9 12 12 5 8 4 7 7 6 8 8 5 10 6 5 6 8 7
12 18 8 6 7 7 3 17 10 9 -1 10 -2 2 10 9 9 12 14 10 15 8 26 20 8 34 14 6 10 9 7 9 9 7 7 7 5 7 7 6 7 7 6 8 10
13 11 6 -2 9 8 2 -5 14 0 0 5 3 5 8 7 9 15 9 10 11 15 11 4 6 12 9 7 9 11 12 9 7 8 6 7 8 7 5 5 4 6 4 7 6
1 9 9 10 9 5 7 8 17 1 -3 5 14 1 6 10 12 11 21 14 -1 2 7 2 -5 12 8 9 12 5 7 7 6 7 9 5 6 5 5 3 3 3 7 4 3
3 13 -6 13 12 4 4 10 5 2 4 9 19 6 4 5 8 2 1 23 28 3 7 16 18 10 10 3 3 8 8 8 7 6 9 8 7 10 5 6 6 7 10 7 6
33 -5 11 13 15 10 1 5 20 -4 18 19 6 5 4 1 8 13 11 2 9 10 14 3 5 6 8 16 18 5 4 6 4 7 5 4 4 8 5 6 9 11 7 6 6
18 33 4 3 10 2 8 14 9 14 7 5 5 7 5 7 12 21 4 13 -5 4 2 4 5 3 4 5 5 5 7 6 5 4 5 7 10 7 4 10 8 6 6 6 5
-1 16 25 10 -2 7 2 13 4 5 3 6 6 5 2 6 3 12 17 -0 7 7 4 9 6 7 9 4 1 6 6 5 4 5 8 8 7 10 8 8 10 6 5 4 4
Height
5804 5808 5811 5813 5816 5819 5823 5826 5830 5833 5839 5844 5847 5851 5853 5856 5858 5862 5864 5868 5868 5868 5869 5870 5872 5872 5873 5873 5874 5874 5874 5874 5873 5873 5874 5873 5872 5873 5873 5873 5873 5873 5873 5874 5874
5795 5800 5804 5806 5809 5812 5816 5818 5823 5826 5831 5836 5840 5844 5848 5851 5853 5856 5860 5862 5864 5865 5866 5868 5869 5870 5871 5871 5871 5872 5872 5873 5873 5872 5872 5872 5871 5871 5871 5870 5870 5872 5870 5869 5870
5789 5792 5796 5799 5802 5805 5808 5811 5816 5819 5822 5828 5833 5838 5842 5845 5848 5850 5854 5857 5859 5861 5862 5864 5865 5867 5867 5868 5869 5869 5868 5870 5870 5870 5870 5869 5869 5868 5868 5868 5865 5868 5867 5866 5865
5780 5784 5788 5791 5795 5798 5802 5804 5809 5811 5814 5820 5824 5830 5834 5838 5843 5846 5849 5852 5854 5856 5858 5859 5860 5862 5864 5865 5866 5865 5865 5866 5867 5867 5867 5867 5866 5865 5865 5864 5863 5862 5863 5863 5863
5771 5774 5779 5784 5787 5791 5795 5798 5800 5804 5808 5812 5815 5820 5826 5830 5834 5839 5842 5845 5848 5850 5852 5855 5856 5858 5860 5861 5862 5862 5862 5862 5863 5863 5863 5863 5863 5861 5861 5860 5859 5859 5858 5858 5858
5762 5766 5770 5775 5778 5782 5787 5790 5793 5797 5800 5804 5807 5811 5817 5822 5826 5831 5835 5839 5842 5845 5846 5849 5853 5852 5855 5856 5858 5857 5858 5858 5858 5859 5860 5860 5859 5859 5857 5856 5855 5854 5854 5853 5852
5753 5757 5761 5766 5769 5772 5777 5782 5786 5789 5792 5796 5800 5804 5808 5812 5817 5823 5826 5830 5835 5838 5841 5844 5845 5848 5850 5851 5852 5853 5853 5854 5854 5854 5855 5855 5856 5855 5852 5852 5852 5849 5849 5848 5847
5743 5748 5752 5756 5761 5765 5770 5774 5778 5781 5784 5788 5793 5796 5802 5801 5809 5813 5816 5821 5827 5830 5834 5835 5839 5841 5844 5845 5846 5847 5848 5850 5850 5849 5850 5851 5851 5850 5848 5847 5849 5845 5843 5843 5842
5734 5739 5743 5747 5753 5757 5762 5766 5769 5773 5777 5781 5784 5789 5794 5796 5801 5803 5807 5813 5817 5823 5826 5827 5832 5835 5837 5838 5840 5840 5842 5844 5846 5845 5844 5846 5846 5845 5842 5840 5842 5841 5838 5837 5837
5723 5729 5734 5739 5744 5749 5754 5758 5762 5765 5770 5773 5777 5783 5787 5790 5792 5795 5800 5805 5808 5814 5816 5822 5825 5827 5831 5831 5832 5834 5836 5837 5840 5841 5841 5839 5839 5841 5838 5835 5837 5837 5833 5832 5832
5714 5719 5725 5730 5735 5740 5746 5751 5757 5760 5763 5766 5768 5772 5779 5781 5786 5789 5792 5797 5801 5805 5809 5812 5816 5822 5822 5823 5826 5830 5830 5830 5830 5835 5835 5832 5834 5833 5834 5830 5830 5832 5828 5827 5827
5704 5710 5715 5721 5726 5731 5737 5745 5747 5750 5755 5758 5760 5764 5770 5774 5777 5780 5784 5788 5793 5799 5799 5802 5811 5813 5812 5817 5820 5820 5823 5824 5824 5827 5828 5826 5829 5827 5828 5827 5822 5827 5823 5823 5823
5694 5700 5706 5712 5718 5725 5732 5737 5740 5742 5747 5751 5753 5758 5758 5765 5767 5772 5777 5779 5785 5788 5792 5796 5804 5802 5807 5810 5812 5813 5816 5818 5819 5820 5819 5821 5824 5822 5820 5820 5819 5821 5819 5818 5818
5685 5690 5696 5703 5713 5718 5726 5729 5732 5736 5740 5744 5747 5753 5750 5758 5761 5764 5769 5773 5776 5783 5785 5785 5793 5796 5798 5802 5804 5807 5810 5811 5811 5813 5813 5815 5817 5816 5815 5813 5813 5814 5814 5813 5813
5673 5680 5688 5696 5705 5714 5719 5722 5726 5728 5731 5736 5739 5741 5743 5748 5754 5755 5760 5762 5769 5774 5775 5782 5785 5787 5792 5795 5795 5804 5802 5804 5805 5805 5806 5809 5809 5811 5810 5808 5808 5809 5809 5808 5808
5663 5670 5678 5686 5697 5704 5706 5712 5718 5722 5725 5729 5732 5734 5736 5737 5741 5745 5750 5755 5759 5763 5767 5773 5777 5780 5785 5787 5789 5795 5796 5797 5798 5798 5802 5801 5801 5808 5804 5802 5802 5803 5804 5804 5803
5653 5661 5671 5679 5691 5693 5698 5706 5711 5714 5721 5723 5726 5729 5730 5731 5734 5737 5742 5747 5753 5756 5761 5765 5770 5774 5777 5781 5785 5788 5790 5791 5793 5793 5796 5796 5796 5798 5799 5797 5796 5796 5798 5798 5797
5641 5650 5659 5671 5676 5682 5688 5697 5701 5710 5715 5718 5721 5723 5726 5728 5730 5732 5734 5739 5744 5748 5753 5756 5763 5767 5774 5777 5779 5780 5783 5786 5787 5788 5791 5790 5790 5791 5792 5793 5792 5791 5791 5792 5792
5629 5637 5648 5658 5665 5672 5679 5687 5697 5704 5709 5712 5715 5717 5721 5725 5727 5728 5731 5736 5739 5743 5749 5754 5756 5760 5764 5767 5772 5776 5778 5780 5781 5782 5783 5784 5785 5785 5784 5786 5787 5788 5787 5786 5784
5621 5631 5642 5647 5655 5664 5673 5683 5692 5697 5702 5705 5710 5713 5716 5719 5722 5723 5725 5730 5733 5737 5742 5745 5750 5755 5760 5763 5766 5769 5773 5774 5775 5777 5777 5778 5779 5780 5779 5776 5777 5779 5781 5782 5780
5609 5621 5630 5635 5645 5654 5664 5676 5685 5689 5696 5701 5705 5708 5712 5715 5717 5719 5722 5725 5727 5731 5736 5740 5745 5750 5753 5758 5761 5763 5766 5768 5769 5770 5771 5773 5775 5775 5774 5772 5770 5771 5772 5773 5772
5599 5611 5616 5624 5637 5646 5657 5669 5677 5682 5688 5695 5699 5703 5707 5709 5712 5716 5719 5722 5726 5729 5731 5738 5739 5744 5747 5749 5753 5757 5760 5761 5764 5766 5766 5767 5772 5768 5768 5767 5764 5764 5765 5765 5764
5589 5598 5602 5618 5628 5638 5650 5660 5668 5675 5683 5689 5693 5697 5703 5706 5708 5711 5713 5717 5720 5724 5727 5731 5734 5738 5742 5746 5750 5753 5754 5755 5757 5759 5762 5759 5766 5762 5760 5759 5761 5762 5759 5757 5755
5575 5583 5597 5612 5621 5631 5643 5653 5661 5668 5676 5683 5687 5691 5695 5700 5703 5706 5710 5712 5716 5721 5724 5725 5729 5735 5739 5741 5743 5746 5747 5749 5752 5754 5756 5755 5756 5756 5754 5750 5752 5754 5753 5751 5749
5562 5576 5596 5605 5614 5623 5635 5646 5653 5661 5669 5675 5680 5686 5690 5695 5698 5702 5705 5708 5711 5715 5718 5722 5726 5729 5732 5735 5737 5740 5742 5745 5747 5748 5746 5751 5746 5750 5745 5743 5744 5744 5742 5741 5740
5560 5572 5588 5599 5608 5617 5627 5638 5645 5653 5662 5669 5675 5681 5685 5691 5695 5698 5701 5704 5708 5710 5713 5717 5721 5723 5725 5728 5731 5734 5736 5740 5741 5741 5739 5740 5742 5739 5735 5736 5735 5733 5731 5729 5727
5556 5566 5579 5592 5600 5608 5623 5633 5640 5647 5656 5662 5669 5671 5677 5684 5687 5691 5696 5699 5702 5706 5709 5711 5715 5718 5721 5722 5723 5725 5733 5732 5732 5733 5732 5732 5733 5732 5730 5730 5727 5722 5721 5719 5717